STARLINK-5897, 55931

Orbit data source: Space-Track

STARLINK-5897, 55931 is a payload satellite owned by SpaceX/Seattle (US) in LEO that was launched on Fri, 17 Mar 2023 UTC via an FALCON 9 launch vehicle from the Air Force Western Test Range (AFWTR). Payload-class satellites include a variety of spacecraft equipped with specific instruments for various scientific and technological missions. These include communications satellites like Starlink; space stations such as the ISS; scientific satellites like the Hubble; Earth observation satellites from companies like Planet Labs, Umbra, and HawkEye 360; GPS; miniature CubeSats for education and research; and military/defense satellites.

Loading next visibility...
Identifier
55931, 2023-037T
Orbit
LEO
Country
Flag of USUS
Related business
Manufacturer
SpaceX/Seattle
Mission
Operational Commercial Communications
Bus & Motor
STARLINK, Unknown motor
Mass
305 kg wet, ~290 kg dry
Launch date (UTC)
2023-03-17 (3 years ago)
Launch vehicle
FALCON 9
Launch site
Air Force Western Test Range (AFWTR)
Object type
Payload
Rocket body
Debris
Shape & HBR
Box + 1 Pan, 10.1 m
Radar Cross Section
11.087 m², Large (>1 m²)

Expand to show TLE details & history
Last TLE update: 18 hours ago

TLE from 18 hours ago
0 STARLINK-5897
1 55931U 23037T   25348.85172491  .00003425  00000-0  29463-3 0  9998
2 55931  69.9997 158.1844 0003167 267.3135  92.7661 14.98339245150789
Epoch: 2025-12-14T20:26Z
TLE epoch observation values (Epoch: 2025-12-14T20:26:29.032Z)
Latitude
-0.00006°
Longitude
127.8047°
Altitude
574.558 km
Speed
7.574 km/s
True Right ascension
10h 32m 44s
True Declination
0° 00' 00"
Sunlit
Object was in daylight at epoch
Visualization orbit readout
Latitude
Unknown
Longitude
Unknown
Altitude
Unknown
Speed
Unknown
Apparent Right ascension
Unknown
Apparent Declination
Unknown
Sunlit
N/A
Visualization observer readout
Local Sidereal Time
13:19:04
Azimuth
Unknown
Elevation
Unknown
Doppler factor
Unknown
Orbital elements
Apogee altitude
572.176 km
Perigee altitude
567.775 km
Semi-major axis
6,948.113 km
Eccentricity
0.00032
Inclination
69.9997°
RAAN
158.1844°
Arg. of periapsis
267.3135°
True anomaly
92.80235°
Mean anomaly
92.7661°
Eccentric anomaly
92.78422°
Mean motion
3.74751 °/min
Orbital period
96.06 mins
BSTAR
0.00029463
Loading maneuver chart data...
Computing Atmospheric mass density...
Loading historical data...
Loading historical data...
Loading historical data...
Loading historical data...
Loading historical data...
Loading historical data...
Loading historical data...

Documentation

Showing up to 5 results
|